loading
|

ISS (ZARYA), 25544

Orbit data source: Space-Track

The International Space Station (ISS) is a collaborative project involving NASA, Roscosmos, ESA, JAXA, and CSA. It is the largest human-made structure in low Earth orbit (LEO). It serves as a microgravity laboratory where scientific research is conducted in various fields, such as astrobiology, astronomy, meteorology, and physics. Astronauts have continuously inhabited the ISS since Nov 2000, and the space station supports testing spacecraft systems and equipment needed for long-duration missions to the Moon and Mars.

Loading next visibility...
Loading greatness...
ISS (ZARYA) details
Identifier
25544, 1998-067A
Orbit
LEO
Last TLE update11 hours ago
Origin
Flag of ISSNASA JSC (ISS)
ManufacturerKhrunichev
Mission statusOperational
MissionCivil Spaceship
Bus & Motor77KS, Unknown motor
Mass20,351 kg wet, ~19,000 kg dry
Launch date (UTC)
1998-11-20 (26 years ago)
Launch vehicle
PROTON-K
Launch site
Tyuratam Missile And Space Complex (TTMTR)
Object type
Payload
Rocket body
Debris
Radar Cross Section399 m², Large (>1 m²)

Expand to show TLE details & history

TLE from 11 hours ago
0 ISS (ZARYA)
1 25544U 98067A   24251.50686233  .00032814  00000-0  60758-3 0  9994
2 25544  51.6389 267.5581 0007056 323.5900 201.5975 15.48680455471319
Epoch: 2024-09-07T12:09Z
Definitive object data (Epoch: 2024-09-07T12:09:52.905Z)
Latitude11.58234°
Longitude-91.25942°
Altitude425.021 km
Speed7.656 km/s
True Right ascension05h 13m 06s
True Declination11° 30' 42"
Sunlit
Object was in daylight at TLE epoch
Predictive object data (real-time)
Latitude24.98402°
Longitude-105.71072°
Altitude426.105 km
Speed7.657 km/s
Apparent Right ascension03h 44m 21s
Apparent Declination-6° 19' 39"
Sunlit
Object is in daylight
Predictive observer data (real-time)
Local Sidereal Time15:05:18
Azimuth342.789° N
Elevation-55.285°
Doppler factor1
Orbital elements
Apogee425.891 km
Perigee416.295 km
Semi-major axis6,799.23 km
Eccentricity0.0007056
Inclination51.6389°
RAAN267.5581°
Arg. of periapsis323.59°
True anomaly201.56776°
Mean anomaly201.5975°
Eccentric anomaly201.58263°
Mean motion3.87127 °/min
BSTAR0.00060758
Period92.99 mins
No data available

ISS (ZARYA) Visibility forecast

Observer location: 39.9160978°, -105.1181434

ISS (ZARYA) is not visible in the next 10 days
Span
Click to sort rows by Start time (UTC) header in descending order
Start Az.
Max El. time (UTC)
Max El. Az.
Max El.
End time (UTC)
End Az.